Salina, KS

10:26 PM CDT on July 23, 2017 (GMT -0500)
Salina Municipal

Weather History for KSLN - January, 2012

Change the Weather History Date:

Thursday, January 12, 2012

  Actual Average Record
Temperature  
Mean Temperature 23 °F 31 °F  
Max Temperature 30 °F 41 °F 65 °F (1996)
Min Temperature 15 °F 20 °F -20 °F (1918)
Degree Days  
Heating Degree Days 42 34  
Month to date heating degree days 337 408  
Since 1 July heating degree days 2222 2372  
Cooling Degree Days 0 0  
Month to date cooling degree days 0 0  
Year to date cooling degree days 0 0  
Moisture  
Dew Point 1 °F    
Average Humidity 38    
Maximum Humidity 56    
Minimum Humidity 19    
Precipitation  
Precipitation T in 0.02 in 0.53 in (1979)
Month to date precipitation T 0.19  
Year to date precipitation T 0.19  
Sea Level Pressure  
Sea Level Pressure 30.13 in    
Wind  
Wind Speed 18 mph (NW)    
Max Wind Speed 31 mph    
Max Gust Speed 39 mph    
Visibility 10 miles    
Events Snow    
T = Trace of Precipitation, MM = Missing Value Source: NWS Daily Summary

Daily Weather History Graph

Daily Weather History Graph

Search for Another Location

Airport or City:

Trip Planner

Search our weather history database for the weather conditions in past years. The results will help you decide how hot, cold, wet, or windy it might be!

Date:

Astronomy

Jan. 12, 2012 Rise Set
Actual Time 7:48 AM CST 5:29 PM CST
Civil Twilight 7:19 AM CST 5:58 PM CST
Nautical Twilight 6:46 AM CST 6:31 PM CST
Astronomical Twilight 6:14 AM CST 7:03 PM CST
Moon 9:33 PM CST (1/12) 9:35 AM CST (1/12)
Length of Visible Light 10h 39m
Length of Day
9h 41m
Waning Gibbous, 87% of the Moon is Illuminated
Jan 12
Waning Gibbous
Jan 16
Last Quarter
Jan 23
New
Jan 30
First Quarter
Feb 7
Full

Hourly Weather History & Observations

Time (CST) Temp. Windchill Dew Point Humidity Pressure Visibility Wind Dir Wind Speed Gust Speed Precip Events Conditions
12:53 AM 19.9 °F 2.8 °F 5.0 °F 52% 30.13 in 9.0 mi NW 24.2 mph 35.7 mph 0.00 in Snow Light Snow
1:53 AM 19.0 °F 3.2 °F 6.1 °F 57% 30.14 in 10.0 mi NW 19.6 mph 27.6 mph 0.00 in   Clear
2:53 AM 19.0 °F 4.5 °F 6.1 °F 57% 30.14 in 10.0 mi NW 16.1 mph - N/A   Overcast
3:53 AM 19.9 °F 2.2 °F 7.0 °F 57% 30.14 in 10.0 mi NNW 26.5 mph 32.2 mph 0.00 in Snow Light Snow
4:53 AM 19.0 °F 3.2 °F 3.9 °F 52% 30.13 in 9.0 mi NNW 19.6 mph - 0.00 in   Overcast
5:53 AM 19.0 °F 5.0 °F 5.0 °F 54% 30.13 in 10.0 mi NW 15.0 mph - N/A   Mostly Cloudy
6:53 AM 19.0 °F 2.7 °F 6.1 °F 57% 30.13 in 9.0 mi NNW 20.7 mph 33.4 mph 0.00 in   Overcast
7:53 AM 17.1 °F 1.0 °F 10.9 °F 77% 30.14 in 9.0 mi NNW 18.4 mph - 0.00 in   Overcast
8:53 AM 19.0 °F 1.6 °F 5.0 °F 54% 30.12 in 10.0 mi NW 24.2 mph 31.1 mph 0.00 in   Mostly Cloudy
9:53 AM 21.0 °F 4.3 °F 1.9 °F 44% 30.14 in 9.0 mi NW 24.2 mph - 0.00 in   Mostly Cloudy
10:53 AM 19.9 °F 2.8 °F 1.0 °F 44% 30.16 in 9.0 mi NW 24.2 mph - N/A   Overcast
11:53 AM 23.0 °F 7.2 °F 1.0 °F 39% 30.14 in 9.0 mi NW 23.0 mph 32.2 mph N/A   Overcast
12:53 PM 25.0 °F 9.9 °F -0.0 °F 34% 30.12 in 9.0 mi NW 23.0 mph - N/A   Overcast
1:53 PM 28.0 °F 13.9 °F -2.0 °F 27% 30.10 in 10.0 mi NW 23.0 mph - N/A   Overcast
2:53 PM 30.0 °F 17.2 °F -5.1 °F 22% 30.09 in 10.0 mi WNW 20.7 mph - N/A   Mostly Cloudy
3:53 PM 30.0 °F 16.6 °F -8.0 °F 19% 30.09 in 10.0 mi NW 23.0 mph - N/A   Clear
4:53 PM 28.9 °F 16.9 °F -8.0 °F 20% 30.11 in 10.0 mi NW 17.3 mph - N/A   Clear
5:53 PM 23.0 °F 13.9 °F -4.0 °F 31% 30.12 in 10.0 mi WNW 8.1 mph - N/A   Clear
6:53 PM 19.0 °F 10.0 °F -2.9 °F 38% 30.13 in 10.0 mi West 6.9 mph - N/A   Clear
7:53 PM 19.0 °F 8.2 °F -2.9 °F 38% 30.15 in 10.0 mi West 9.2 mph - N/A   Clear
8:53 PM 15.1 °F 2.5 °F -2.0 °F 47% 30.15 in 10.0 mi West 10.4 mph - N/A   Clear
9:53 PM 18.0 °F 6.1 °F -4.0 °F 38% 30.16 in 10.0 mi WNW 10.4 mph - N/A   Clear
10:53 PM 16.0 °F 3.6 °F -2.9 °F 43% 30.18 in 10.0 mi WNW 10.4 mph - N/A   Clear
11:53 PM 15.1 °F 4.2 °F -2.9 °F 45% 30.18 in 10.0 mi West 8.1 mph - N/A   Clear